THY1525 LTAU-LTFM

Flight info

Callsign THY1525
Flight time N/A
Altitude 32000
Route KISLA UL605 YAVRU UL615 ERSEN
Aircraft A320/M-SDE3FGHIRWY/LB1

Departure

Time N/A
Airport Kayseri Erkilet International Airport (LTAU)

Arrival

Time 2026-05-05 14:45
Airport İstanbul Airport (LTFM)
Time Latitude Longitude Altitude Speed Heading
2026-05-05 14:00 40.52493 31.94385 31024 ft 423 kts 307°
2026-05-05 14:01 40.55807 31.87971 30917 ft 426 kts 307°
2026-05-05 14:01 40.57438 31.84714 30644 ft 428 kts 303°
2026-05-05 14:01 40.58728 31.81172 30385 ft 432 kts 294°
2026-05-05 14:02 40.59680 31.77405 30126 ft 434 kts 292°
2026-05-05 14:02 40.60611 31.73623 30003 ft 434 kts 292°
2026-05-05 14:02 40.62500 31.66021 30043 ft 439 kts 291°
2026-05-05 14:03 40.64399 31.58378 30057 ft 440 kts 291°
2026-05-05 14:03 40.66289 31.50700 30059 ft 440 kts 291°
2026-05-05 14:04 40.68168 31.43027 30042 ft 440 kts 291°
2026-05-05 14:04 40.70046 31.35315 30070 ft 443 kts 291°
2026-05-05 14:05 40.71927 31.27574 30072 ft 444 kts 291°
2026-05-05 14:05 40.73806 31.19827 30081 ft 444 kts 291°
2026-05-05 14:06 40.75684 31.12078 30070 ft 444 kts 290°
2026-05-05 14:06 40.77564 31.04279 30081 ft 447 kts 290°
2026-05-05 14:07 40.79448 30.96446 30084 ft 448 kts 290°
2026-05-05 14:07 40.81310 30.88656 30089 ft 448 kts 290°
2026-05-05 14:08 40.83188 30.80800 30087 ft 448 kts 290°
2026-05-05 14:08 40.85068 30.72901 30085 ft 443 kts 290°
2026-05-05 14:09 40.85960 30.69129 30084 ft 431 kts 290°
2026-05-05 14:09 40.86683 30.65313 30090 ft 430 kts 281°
2026-05-05 14:09 40.87474 30.57482 30090 ft 429 kts 280°
2026-05-05 14:10 40.88298 30.49665 30085 ft 429 kts 285°
2026-05-05 14:10 40.89229 30.45939 30091 ft 427 kts 296°
2026-05-05 14:10 40.90702 30.42539 30090 ft 425 kts 308°
2026-05-05 14:11 40.94560 30.36654 30086 ft 424 kts 313°
2026-05-05 14:11 40.98483 30.30810 30087 ft 424 kts 313°
2026-05-05 14:12 41.02401 30.24963 30087 ft 425 kts 313°
2026-05-05 14:12 41.06205 30.19087 30086 ft 408 kts 304°
2026-05-05 14:13 41.07228 30.15655 30088 ft 397 kts 280°
2026-05-05 14:13 41.07119 30.12029 30085 ft 398 kts 256°
2026-05-05 14:13 41.05917 30.08736 30088 ft 401 kts 234°
2026-05-05 14:13 41.04011 30.06045 30087 ft 403 kts 221°
2026-05-05 14:14 40.99487 30.01715 30089 ft 404 kts 214°
2026-05-05 14:14 40.94944 29.97360 30089 ft 404 kts 219°
2026-05-05 14:15 40.91339 29.93364 30090 ft 403 kts 222°
2026-05-05 14:15 40.88706 29.89930 30084 ft 400 kts 236°
2026-05-05 14:15 40.87414 29.86700 30091 ft 397 kts 253°
2026-05-05 14:16 40.86868 29.83154 30090 ft 394 kts 269°
2026-05-05 14:16 40.86807 29.79537 30090 ft 394 kts 270°
2026-05-05 14:16 40.86723 29.73461 30090 ft 395 kts 270°
2026-05-05 14:17 40.86620 29.66259 30088 ft 395 kts 270°
2026-05-05 14:17 40.87163 29.59028 30085 ft 393 kts 279°
2026-05-05 14:18 40.87539 29.55451 29693 ft 394 kts 279°
2026-05-05 14:18 40.87935 29.51887 29324 ft 388 kts 283°
2026-05-05 14:18 40.88943 29.48685 29185 ft 372 kts 308°
2026-05-05 14:18 40.90807 29.46447 29000 ft 359 kts 333°
2026-05-05 14:19 40.93139 29.45432 28654 ft 352 kts 353°
2026-05-05 14:19 40.95572 29.45268 28230 ft 349 kts
2026-05-05 14:19 40.97971 29.45357 27802 ft 348 kts 358°
2026-05-05 14:19 41.00377 29.45136 27396 ft 346 kts 351°
2026-05-05 14:20 41.02722 29.44470 27012 ft 344 kts 345°
2026-05-05 14:20 41.05007 29.43546 26665 ft 342 kts 342°
2026-05-05 14:20 41.07133 29.42165 26325 ft 341 kts 324°
2026-05-05 14:20 41.09040 29.40293 25987 ft 340 kts 326°
2026-05-05 14:21 41.10988 29.38512 25664 ft 339 kts 327°
2026-05-05 14:21 41.12953 29.36808 25329 ft 336 kts 327°
2026-05-05 14:21 41.14734 29.34825 24971 ft 335 kts 314°
2026-05-05 14:21 41.16327 29.32567 24604 ft 333 kts 314°
2026-05-05 14:22 41.17734 29.30145 24264 ft 332 kts 296°
2026-05-05 14:22 41.18226 29.27175 23950 ft 334 kts 268°
2026-05-05 14:22 41.17596 29.24231 23609 ft 336 kts 240°
2026-05-05 14:22 41.16032 29.21926 23179 ft 338 kts 219°
2026-05-05 14:23 41.14057 29.20227 22745 ft 339 kts 210°
2026-05-05 14:23 41.11967 29.18792 22364 ft 338 kts 207°
2026-05-05 14:23 41.09903 29.17391 22009 ft 336 kts 209°
2026-05-05 14:23 41.07865 29.15889 21655 ft 333 kts 212°
2026-05-05 14:24 41.05890 29.14288 21305 ft 331 kts 214°
2026-05-05 14:24 41.03961 29.12617 20735 ft 334 kts 215°
2026-05-05 14:24 41.02036 29.10885 19976 ft 335 kts 216°
2026-05-05 14:24 41.00124 29.09135 19261 ft 334 kts 217°
2026-05-05 14:25 40.98216 29.07383 18543 ft 334 kts 217°
2026-05-05 14:25 40.96306 29.05635 17757 ft 333 kts 217°
2026-05-05 14:25 40.94397 29.03896 16958 ft 332 kts 217°
2026-05-05 14:25 40.92700 29.01890 16182 ft 326 kts 239°
2026-05-05 14:26 40.91906 28.99167 15429 ft 315 kts 269°
2026-05-05 14:26 40.92184 28.96367 14700 ft 306 kts 290°
2026-05-05 14:26 40.92832 28.93695 13970 ft 305 kts 293°
2026-05-05 14:26 40.93525 28.91048 13183 ft 304 kts 294°
2026-05-05 14:27 40.94220 28.88423 12397 ft 303 kts 294°
2026-05-05 14:27 40.94905 28.85795 11627 ft 301 kts 294°
2026-05-05 14:27 40.95575 28.83176 10878 ft 299 kts 293°
2026-05-05 14:27 40.96231 28.80577 10172 ft 297 kts 293°
2026-05-05 14:28 40.96911 28.78108 9991 ft 270 kts 304°
2026-05-05 14:28 40.98103 28.76510 10001 ft 233 kts 336°
2026-05-05 14:28 40.99570 28.76079 9976 ft 208 kts
2026-05-05 14:28 41.01051 28.76521 9712 ft 236 kts 15°
2026-05-05 14:29 41.02665 28.77198 9445 ft 247 kts 16°
2026-05-05 14:29 41.04301 28.77909 9193 ft 248 kts 16°
2026-05-05 14:29 41.05942 28.78626 8857 ft 249 kts 16°
2026-05-05 14:29 41.07593 28.79348 8463 ft 251 kts 16°
2026-05-05 14:30 41.09255 28.80076 8080 ft 252 kts 16°
2026-05-05 14:30 41.10927 28.80810 7698 ft 253 kts 16°
2026-05-05 14:30 41.12601 28.81547 7323 ft 254 kts 16°
2026-05-05 14:30 41.14284 28.82289 6955 ft 255 kts 16°
2026-05-05 14:31 41.15963 28.83028 6709 ft 254 kts 16°
2026-05-05 14:31 41.17647 28.83765 6462 ft 255 kts 16°
2026-05-05 14:31 41.19331 28.84503 6200 ft 255 kts 16°
2026-05-05 14:31 41.21014 28.85243 5946 ft 254 kts 16°
2026-05-05 14:32 41.22676 28.85968 5681 ft 255 kts 16°
2026-05-05 14:32 41.24362 28.86701 5424 ft 255 kts 16°
2026-05-05 14:32 41.26044 28.87429 5163 ft 255 kts 16°
2026-05-05 14:32 41.27732 28.88161 5019 ft 256 kts 16°
2026-05-05 14:33 41.29420 28.88896 5006 ft 257 kts 16°
2026-05-05 14:33 41.31119 28.89638 5005 ft 257 kts 16°
2026-05-05 14:33 41.32778 28.90512 5004 ft 258 kts 30°
2026-05-05 14:33 41.34013 28.92241 5004 ft 264 kts 59°
2026-05-05 14:34 41.34479 28.94608 5010 ft 270 kts 88°
2026-05-05 14:34 41.34036 28.97038 5004 ft 276 kts 116°
2026-05-05 14:34 41.32959 28.99163 5009 ft 278 kts 125°
2026-05-05 14:34 41.31778 29.01214 5011 ft 279 kts 126°
2026-05-05 14:35 41.30589 29.03252 5000 ft 279 kts 126°
2026-05-05 14:35 41.29222 29.05074 5003 ft 280 kts 147°
2026-05-05 14:35 41.27402 29.05945 4907 ft 282 kts 175°
2026-05-05 14:35 41.25485 29.05726 4640 ft 275 kts 194°
2026-05-05 14:36 41.23637 29.05135 4384 ft 272 kts 196°
2026-05-05 14:36 41.21815 29.04506 4123 ft 270 kts 196°
2026-05-05 14:36 41.19998 29.03869 3867 ft 269 kts 196°
2026-05-05 14:36 41.18208 29.03234 3611 ft 265 kts 196°
2026-05-05 14:37 41.16436 29.02599 3360 ft 262 kts 196°
2026-05-05 14:37 41.14692 29.01964 3106 ft 258 kts 196°
2026-05-05 14:37 41.12973 29.01328 2998 ft 255 kts 196°
2026-05-05 14:37 41.11272 29.00671 3002 ft 255 kts 201°
2026-05-05 14:38 41.09829 28.99370 3008 ft 252 kts 230°
2026-05-05 14:38 41.08752 28.97539 3010 ft 252 kts 236°
2026-05-05 14:38 41.07733 28.95643 2998 ft 252 kts 236°
2026-05-05 14:38 41.06725 28.93741 3008 ft 253 kts 236°
2026-05-05 14:39 41.05714 28.91834 3008 ft 253 kts 236°
2026-05-05 14:39 41.04701 28.89924 3011 ft 253 kts 236°
2026-05-05 14:39 41.03758 28.87998 3007 ft 252 kts 248°
2026-05-05 14:39 41.03470 28.85764 3014 ft 248 kts 278°
2026-05-05 14:40 41.04053 28.83653 3009 ft 245 kts 303°
2026-05-05 14:40 41.05215 28.82050 3015 ft 242 kts 329°
2026-05-05 14:40 41.06713 28.81022 3007 ft 243 kts 335°
2026-05-05 14:40 41.08219 28.80102 2995 ft 230 kts 336°
2026-05-05 14:41 41.09589 28.79273 2994 ft 204 kts 336°
2026-05-05 14:41 41.10831 28.78519 3004 ft 191 kts 336°
2026-05-05 14:41 41.12019 28.77797 3002 ft 186 kts 336°
2026-05-05 14:41 41.13192 28.77082 3007 ft 185 kts 336°
2026-05-05 14:42 41.14359 28.76372 3015 ft 184 kts 336°
2026-05-05 14:42 41.15559 28.75803 3001 ft 183 kts 358°
2026-05-05 14:42 41.16756 28.75865 3011 ft 161 kts 359°
2026-05-05 14:42 41.17822 28.75840 3002 ft 148 kts 358°
2026-05-05 14:43 41.18871 28.75814 2605 ft 154 kts 359°
2026-05-05 14:43 41.19932 28.75791 2198 ft 150 kts 359°
2026-05-05 14:43 41.20926 28.75771 1935 ft 138 kts 359°
2026-05-05 14:43 41.21875 28.75753 1579 ft 136 kts 359°
2026-05-05 14:44 41.22826 28.75735 1159 ft 136 kts 359°
2026-05-05 14:44 41.23761 28.75719 906 ft 132 kts 360°
2026-05-05 14:44 41.24663 28.75707 722 ft 129 kts
2026-05-05 14:44 41.25552 28.75683 539 ft 127 kts 359°
2026-05-05 14:45 41.26435 28.75664 356 ft 126 kts 359°
2026-05-05 14:45 41.27201 28.75651 332 ft 90 kts 359°
2026-05-05 14:45 41.27652 28.75640 333 ft 40 kts 359°
2026-05-05 14:45 41.27811 28.75637 333 ft 21 kts
2026-05-05 14:46 41.28010 28.75594 333 ft 31 kts 337°
2026-05-05 14:46 41.28162 28.75464 333 ft 18 kts 297°
2026-05-05 14:46 41.28107 28.75346 333 ft 19 kts 179°
2026-05-05 14:46 41.27969 28.75350 333 ft 21 kts 179°
2026-05-05 14:47 41.27812 28.75351 331 ft 24 kts 180°
2026-05-05 14:47 41.27634 28.75361 330 ft 26 kts 180°
2026-05-05 14:47 41.27541 28.75361 332 ft 10 kts 180°
2026-05-05 14:47 41.27486 28.75361 333 ft 6 kts 180°
2026-05-05 14:48 41.27425 28.75361 334 ft 14 kts 179°
2026-05-05 14:48 41.27305 28.75364 333 ft 23 kts 178°
2026-05-05 14:48 41.27120 28.75371 331 ft 29 kts 179°
2026-05-05 14:48 41.26911 28.75376 331 ft 31 kts 179°
2026-05-05 14:49 41.26701 28.75381 333 ft 30 kts 179°
2026-05-05 14:49 41.26488 28.75385 333 ft 28 kts 179°
2026-05-05 14:49 41.26280 28.75389 332 ft 31 kts 179°
2026-05-05 14:49 41.26094 28.75393 330 ft 28 kts 179°
2026-05-05 14:50 41.25897 28.75397 332 ft 29 kts 179°
2026-05-05 14:50 41.25728 28.75402 330 ft 22 kts 179°
2026-05-05 14:50 41.25650 28.75329 334 ft 16 kts 270°
2026-05-05 14:50 41.25651 28.75150 334 ft 23 kts 270°
2026-05-05 14:51 41.25673 28.75042 333 ft 10 kts 352°
2026-05-05 14:51 41.25732 28.75043 333 ft 2 kts 358°
2026-05-05 14:51 41.25740 28.75043 333 ft 0 kts 358°